Zurück zum Katalog

STARLINK-34076

AktivKommunikationVLEO
NORAD 63915·PAYLOAD·🇺🇸 United States

Gestartet May 10, 2025 von Cape Canaveral Space Force Station

Loading…

Nächste Überflüge (nächste 24 Stunden)

TLE

AktuellSource: CelesTrak SupGP

Epoche: Sep 14, 2026, 22:39 UTC

1 63915C 25095AB  26257.94423611 -.00039233  00000+0 -14208-2 0  2572
2 63915  43.0000 187.3321 0001311 268.2706  56.7109 15.27603060    14

Verfolge STARLINK-34076 in Echtzeit mit AllMySat

Download on the App Store